Location: Meanaryar
(48.4161°N, 4.7315°W)
Time: 17:11:41
(UTC+00:00)

Okean 1 Rocket - Pass Details

Date: 18 September 2020
Orbit: 605 x 635 km, 82.5° (Epoch: 29 October)

Event Time Altitude Azimuth Distance (km) Brightness Sun altitude
Exits shadow 19:51:19 24° 96° (E) 1,312 4.1 -14.9°
Maximum altitude 19:51:41 25° 88° (E) 1,302 4.2 -15.0°
Drops below altitude 10° 19:55:20 10° 34° (NNE) 2,033 5.6 -15.6°
Sets 19:57:54 0° 21° (NNE) 2,947 6.6 -16.0°
